Location: Shenandoah County Park
(38.9356°N, 78.4524°W)
Time: 18:11:36
(UTC-04:00)

Explorer 11/Cluster Stage 4 - Pass Details

Date: 23 February 2024
Orbit: 465 x 1219 km, 28.8° (Epoch: 21 April)

Event Time Altitude Azimuth Distance (km) Brightness Sun altitude
Rises 03:27:49 0° 248° (WSW) 4,023 - -40.5°
Reaches altitude 10° 03:31:05 10° 240° (WSW) 2,979 - -39.9°
Maximum altitude 03:37:32 34° 179° (S) 1,578 - -38.7°
Exits shadow 03:41:15 19° 127° (SE) 2,035 8.9 -38.0°
Drops below altitude 10° 03:43:02 10° 116° (ESE) 2,518 9.6 -37.7°
Sets 03:45:34 0° 107° (ESE) 3,330 10.4 -37.3°
